GW1598 Weather Reports


time (UTC)temp
F
wind
direction
speed
knots
gust
knots
rain 1hr
in
rain 24hr
in
rain mn
in
humidity
%
barometer
mb
20260510180317 70 277 5.2 8.7 0.00 0.00 0.00 71 1009.8
20260510175741 69 273 2.6 7.8 0.00 0.00 0.00 74 1009.8
20260510175152 69 273 2.6 7.8 0.00 0.00 0.00 74 1009.8
20260510173950 68 290 2.6 7.8 0.00 0.00 0.00 77 1009.8
20260510173326 68 290 2.6 7.8 0.00 0.00 0.00 77 1009.8
20260510172724 68 265 5.2 9.6 0.00 0.00 0.00 74 1009.8
20260510172111 68 265 5.2 9.6 0.00 0.00 0.00 74 1009.8
20260510170336 67 257 2.6 7.8 0.00 0.00 0.00 76 1009.8
20260510165751 67 268 4.3 7.0 0.00 0.00 0.00 75 1009.8
20260510164545 68 243 4.3 7.8 0.00 0.00 0.00 74 1009.8
20260510163944 68 243 4.3 7.8 0.00 0.00 0.00 74 1009.8
20260510162725 68 256 4.3 10.4 0.00 0.00 0.00 74 1009.8
20260510161529 66 249 3.5 7.0 0.00 0.00 0.00 74 1009.8
20260510160950 66 249 3.5 7.0 0.00 0.00 0.00 74 1009.8
20260510155736 66 242 3.5 4.3 0.00 0.00 0.00 78 1009.4
20260510155150 66 242 3.5 4.3 0.00 0.00 0.00 78 1009.4
20260510154523 67 266 1.7 6.1 0.00 0.00 0.00 76 1009.8
20260510153949 67 266 1.7 6.1 0.00 0.00 0.00 76 1009.8
20260510153322 67 266 1.7 6.1 0.00 0.00 0.00 76 1009.8
20260510152734 68 246 3.5 7.0 0.00 0.00 0.00 70 1009.4
20260510152149 68 246 3.5 7.0 0.00 0.00 0.00 70 1009.4
20260510151535 69 163 0.0 4.3 0.00 0.00 0.00 70 1008.8
20260510150914 69 163 0.0 4.3 0.00 0.00 0.00 70 1008.8
20260510150339 69 163 0.0 4.3 0.00 0.00 0.00 70 1008.8
20260510145717 69 270 4.3 7.8 0.00 0.00 0.00 69 1009.1
20260510145138 69 270 4.3 7.8 0.00 0.00 0.00 69 1009.1
20260510144510 69 257 3.5 9.6 0.00 0.00 0.00 70 1009.1
20260510143927 69 257 3.5 9.6 0.00 0.00 0.00 70 1009.1
20260510143335 69 257 3.5 9.6 0.00 0.00 0.00 70 1009.1
20260510142434 68 134 1.7 7.8 0.00 0.00 0.00 69 1009.1
20260510141819 68 134 1.7 7.8 0.00 0.00 0.00 69 1009.1
20260510141215 68 253 2.6 7.0 0.00 0.00 0.00 73 1008.8
20260510140608 68 253 2.6 7.0 0.00 0.00 0.00 73 1008.8
20260510140010 66 173 0.9 7.0 0.00 0.00 0.00 74 1009.1
20260510133021 64 213 0.0 4.3 0.00 0.00 0.00 82 1008.8
20260510132422 64 213 0.0 4.3 0.00 0.00 0.00 82 1008.8
20260510131848 64 213 0.0 4.3 0.00 0.00 0.00 82 1008.8
20260510131223 60 241 0.0 0.0 0.00 0.00 0.00 92 1008.8
20260510130037 60 241 0.0 0.0 0.00 0.00 0.00 92 1008.8
20260510124814 58 241 0.0 2.6 0.00 0.00 0.00 97 1008.8
20260510124228 56 79 0.9 1.7 0.00 0.00 0.00 100 1008.4
20260510123639 56 79 0.9 1.7 0.00 0.00 0.00 100 1008.4
20260510123036 56 79 0.9 1.7 0.00 0.00 0.00 100 1008.4
20260510122415 53 54 0.0 0.0 0.00 0.00 0.00 99 1008.4
20260510121248 52 17 0.0 0.0 0.00 0.00 0.00 99 1008.4
20260510120608 52 17 0.0 0.0 0.00 0.00 0.00 99 1008.4
20260510120024 52 17 0.0 0.0 0.00 0.00 0.00 99 1008.4
20260510114851 51 18 0.0 0.0 0.00 0.00 0.00 99 1008.4
20260510114220 50 183 0.0 0.0 0.00 0.00 0.00 99 1008.1
20260510113019 50 183 0.0 0.0 0.00 0.00 0.00 99 1008.1
20260510112420 49 116 0.0 0.0 0.00 0.00 0.00 98 1007.7
20260510111840 49 116 0.0 0.0 0.00 0.00 0.00 98 1007.7
20260510110646 49 116 0.0 0.0 0.00 0.00 0.00 98 1007.4
20260510110028 49 116 0.0 0.0 0.00 0.00 0.00 98 1007.4
20260510105429 49 116 0.0 0.0 0.00 0.00 0.00 98 1007.4
20260510104832 49 116 0.0 0.0 0.00 0.00 0.00 98 1007.4
20260510103935 49 116 0.0 0.9 0.00 0.00 0.00 98 1007.1
20260510103324 49 116 0.0 0.9 0.00 0.00 0.00 98 1007.1
20260510102717 49 160 0.0 0.0 0.00 0.00 0.00 98 1007.1
20260510102142 49 160 0.0 0.0 0.00 0.00 0.00 98 1007.1
20260510101511 49 160 0.0 0.0 0.00 0.00 0.00 98 1007.1
20260510100351 48 161 0.0 0.0 0.00 0.00 0.00 98 1007.1
20260510095710 48 89 0.0 0.0 0.00 0.00 0.00 97 1006.7
20260510095139 48 89 0.0 0.0 0.00 0.00 0.00 97 1006.7
20260510094539 48 89 0.0 0.0 0.00 0.00 0.00 97 1006.7
20260510093908 48 89 0.0 0.0 0.00 0.00 0.00 97 1006.4
20260510093327 48 89 0.0 0.0 0.00 0.00 0.00 97 1006.4
20260510092725 49 89 0.0 0.0 0.00 0.00 0.00 97 1006.4
20260510092129 49 89 0.0 0.0 0.00 0.00 0.00 97 1006.4
20260510091537 49 89 0.0 0.0 0.00 0.00 0.00 97 1006.4
20260510090909 49 89 0.0 0.0 0.00 0.00 0.00 97 1006.4
20260510090341 49 89 0.0 0.0 0.00 0.00 0.00 97 1006.4
20260510085716 50 89 0.0 0.0 0.00 0.00 0.00 97 1006.0
20260510083948 50 89 0.0 0.0 0.00 0.00 0.00 98 1006.0
20260510083352 50 89 0.0 0.0 0.00 0.00 0.00 98 1006.0
20260510082744 50 89 0.0 0.0 0.00 0.00 0.00 97 1006.0
20260510082119 50 89 0.0 0.0 0.00 0.00 0.00 97 1006.0
20260510081549 50 89 0.0 0.0 0.00 0.00 0.00 97 1006.0
20260510080918 50 89 0.0 0.0 0.00 0.00 0.00 97 1006.0
20260510080327 50 89 0.0 0.0 0.00 0.00 0.00 97 1006.0
20260510075750 50 89 0.0 0.0 0.00 0.00 0.00 97 1006.0
20260510074542 50 89 0.0 1.7 0.00 0.00 0.00 97 1005.7
20260510073942 50 89 0.0 1.7 0.00 0.00 0.00 97 1005.7
20260510073347 50 89 0.0 1.7 0.00 0.00 0.00 97 1005.7
20260510072734 50 89 0.0 0.0 0.00 0.00 0.00 97 1006.0
20260510072126 50 89 0.0 0.0 0.00 0.00 0.00 97 1006.0
20260510071546 51 89 0.0 0.0 0.00 0.00 0.00 97 1005.7
20260510070925 51 89 0.0 0.0 0.00 0.00 0.00 97 1005.7
20260510070312 51 89 0.0 0.0 0.00 0.00 0.00 97 1005.7
20260510065734 51 89 0.0 0.0 0.00 0.00 0.00 97 1005.7
20260510065141 51 89 0.0 0.0 0.00 0.00 0.00 97 1005.7
20260510063923 51 89 0.0 0.0 0.00 0.00 0.00 96 1006.0
20260510063330 51 89 0.0 0.0 0.00 0.00 0.00 96 1006.0
20260510062709 51 89 0.0 0.0 0.00 0.00 0.00 96 1006.0
20260510062146 51 89 0.0 0.0 0.00 0.00 0.00 96 1006.0
20260510061534 52 89 0.0 0.0 0.00 0.00 0.00 95 1006.0
20260510060949 52 89 0.0 0.0 0.00 0.00 0.00 95 1006.0
20260510060341 52 89 0.0 0.0 0.00 0.00 0.00 95 1006.0
20260510055437 52 89 0.0 0.0 0.00 0.00 0.00 96 1006.0
20260510054808 52 89 0.0 0.0 0.00 0.00 0.00 96 1006.0
20260510053314 52 89 0.0 0.0 0.00 0.00 0.00 95 1006.0
20260510052149 53 89 0.0 2.6 0.00 0.00 0.00 96 1006.0
20260510051548 53 89 0.0 2.6 0.00 0.00 0.00 96 1006.0
20260510050912 53 88 0.0 0.0 0.00 0.00 0.00 96 1006.0
20260510050332 53 88 0.0 0.0 0.00 0.00 0.00 96 1006.0
20260510045436 53 88 0.0 0.0 0.00 0.00 0.00 96 1006.4
20260510044821 53 88 0.0 0.0 0.00 0.00 0.00 96 1006.4
20260510044242 53 88 0.0 0.0 0.00 0.00 0.00 95 1006.4
20260510043608 53 88 0.0 0.0 0.00 0.00 0.00 95 1006.4
20260510043011 53 88 0.0 0.0 0.00 0.00 0.00 95 1006.4
20260510042453 53 88 0.0 0.0 0.00 0.00 0.00 95 1006.4
20260510041812 53 88 0.0 0.0 0.00 0.00 0.00 95 1006.4
20260510041233 54 88 0.0 4.3 0.00 0.00 0.00 95 1006.4
20260510040650 54 88 0.0 4.3 0.00 0.00 0.00 95 1006.4
20260510040034 54 88 0.0 4.3 0.00 0.00 0.00 95 1006.4
20260510035411 54 88 0.9 4.3 0.00 0.00 0.00 95 1006.4
20260510034832 54 88 0.9 4.3 0.00 0.00 0.00 95 1006.4
20260510034252 54 122 0.0 0.0 0.00 0.00 0.00 93 1006.4
20260510033649 54 122 0.0 0.0 0.00 0.00 0.00 93 1006.4
20260510033031 54 122 0.0 0.0 0.00 0.00 0.00 93 1006.4
20260510031812 54 122 0.0 0.0 0.00 0.00 0.00 92 1006.4
20260510030611 55 122 0.0 0.0 0.00 0.00 0.00 92 1006.0
20260510030049 55 122 0.0 0.0 0.00 0.00 0.00 92 1006.0
20260510025434 55 122 0.0 0.0 0.00 0.00 0.00 91 1006.0
20260510024832 55 122 0.0 0.0 0.00 0.00 0.00 91 1006.0
20260510024246 56 122 0.0 0.0 0.00 0.00 0.00 90 1005.7
20260510023634 56 122 0.0 0.0 0.00 0.00 0.00 90 1005.7
20260510023034 56 122 0.0 0.0 0.00 0.00 0.00 90 1005.7
20260510022416 57 122 0.0 0.0 0.00 0.00 0.00 89 1005.7
20260510021826 57 122 0.0 0.0 0.00 0.00 0.00 89 1005.7
20260510021230 58 122 0.0 0.0 0.00 0.00 0.00 87 1005.4
20260510020622 58 122 0.0 0.0 0.00 0.00 0.00 87 1005.4
20260510020026 58 122 0.0 0.0 0.00 0.00 0.00 87 1005.4
20260510015442 59 122 0.0 0.0 0.00 0.00 0.00 86 1005.4
20260510014852 59 122 0.0 0.0 0.00 0.00 0.00 86 1005.4
20260510013018 62 122 0.0 0.0 0.00 0.00 0.00 79 1004.7
20260510012412 62 122 0.0 0.0 0.00 0.00 0.00 79 1004.7
20260510011251 62 117 0.9 2.6 0.00 0.00 0.00 78 1004.4
20260510010614 62 117 0.9 2.6 0.00 0.00 0.00 78 1004.4
20260510010036 62 117 0.9 2.6 0.00 0.00 0.00 78 1004.4
20260510005413 64 117 0.0 1.7 0.00 0.00 0.00 75 1004.4
20260510004825 64 117 0.0 1.7 0.00 0.00 0.00 75 1004.4
20260510003645 65 117 0.0 0.9 0.00 0.00 0.00 72 1004.4
20260510003033 65 117 0.0 0.9 0.00 0.00 0.00 72 1004.4
20260510001226 68 126 0.9 4.3 0.00 0.00 0.00 67 1003.7
20260510000613 68 126 0.9 4.3 0.00 0.00 0.00 67 1003.7
20260509235444 69 109 0.0 3.5 0.00 0.00 0.00 66 1003.7
20260509234822 69 109 0.0 3.5 0.00 0.00 0.00 66 1003.7
20260509234250 70 96 0.0 6.1 0.00 0.00 0.00 63 1003.7
20260509233643 70 96 0.0 6.1 0.00 0.00 0.00 63 1003.7
20260509233013 70 68 3.5 6.1 0.00 0.00 0.00 62 1003.7
20260509232435 70 68 3.5 6.1 0.00 0.00 0.00 62 1003.7
20260509231852 70 68 3.5 6.1 0.00 0.00 0.00 62 1003.7
20260509231230 71 117 0.0 6.1 0.00 0.00 0.00 61 1003.7
20260509230613 71 117 0.0 6.1 0.00 0.00 0.00 61 1003.7
20260509230052 71 117 0.0 6.1 0.00 0.00 0.00 61 1003.7
20260509225413 71 200 0.0 5.2 0.00 0.00 0.00 62 1003.7
20260509224809 71 200 0.0 5.2 0.00 0.00 0.00 62 1003.7
20260509224244 72 131 0.0 4.3 0.00 0.00 0.00 60 1003.3
20260509223610 72 131 0.0 4.3 0.00 0.00 0.00 60 1003.3
20260509223041 72 131 0.0 4.3 0.00 0.00 0.00 60 1003.3
20260509222426 72 94 0.9 7.8 0.00 0.00 0.00 59 1003.7
20260509220917 73 127 3.5 7.0 0.00 0.00 0.00 59 1003.7
20260509220325 73 127 3.5 7.0 0.00 0.00 0.00 59 1003.7
20260509215723 72 96 2.6 7.8 0.00 0.00 0.00 58 1003.7
20260509215134 72 96 2.6 7.8 0.00 0.00 0.00 58 1003.7
20260509214520 72 96 2.6 7.8 0.00 0.00 0.00 58 1003.7
20260509213334 71 142 2.6 7.8 0.00 0.00 0.00 60 1003.7
20260509212738 71 154 1.7 4.3 0.00 0.00 0.00 64 1003.7
20260509212145 71 154 1.7 4.3 0.00 0.00 0.00 64 1003.7
20260509211542 71 154 1.7 4.3 0.00 0.00 0.00 64 1003.7
20260509210931 71 174 0.0 8.7 0.00 0.00 0.00 60 1003.7
20260509210318 71 174 0.0 8.7 0.00 0.00 0.00 60 1003.7
20260509205747 70 260 2.6 7.0 0.00 0.00 0.00 62 1003.7
20260509205134 70 260 2.6 7.0 0.00 0.00 0.00 62 1003.7
20260509204537 70 260 2.6 7.0 0.00 0.00 0.00 62 1003.7
20260509203950 71 255 2.6 9.6 0.00 0.00 0.00 61 1003.7
20260509203321 71 255 2.6 9.6 0.00 0.00 0.00 61 1003.7
20260509202753 70 126 5.2 10.4 0.00 0.00 0.00 63 1003.7
20260509202126 70 126 5.2 10.4 0.00 0.00 0.00 63 1003.7
20260509201532 70 126 5.2 10.4 0.00 0.00 0.00 63 1003.7
20260509200939 69 78 1.7 3.5 0.00 0.00 0.00 67 1003.7
20260509200309 69 78 1.7 3.5 0.00 0.00 0.00 67 1003.7
20260509195125 69 132 0.0 8.7 0.00 0.00 0.00 66 1004.4
20260509193915 70 59 0.9 11.3 0.00 0.00 0.00 65 1004.4
20260509193337 70 59 0.9 11.3 0.00 0.00 0.00 65 1004.4
20260509192748 69 139 0.0 7.0 0.00 0.00 0.00 64 1004.4
20260509191528 69 103 6.1 7.8 0.00 0.00 0.00 65 1004.4
20260509190313 69 103 6.1 7.8 0.00 0.00 0.00 65 1004.4
20260509185750 68 74 3.5 14.8 0.00 0.00 0.00 67 1004.4
20260509185114 68 74 3.5 14.8 0.00 0.00 0.00 67 1004.4
20260509184531 68 64 6.1 13.0 0.00 0.00 0.00 65 1004.0
20260509183936 68 64 6.1 13.0 0.00 0.00 0.00 65 1004.0
20260509183343 68 64 6.1 13.0 0.00 0.00 0.00 65 1004.0
20260509182727 68 72 10.4 14.8 0.00 0.00 0.00 68 1004.0
20260509182153 68 72 10.4 14.8 0.00 0.00 0.00 68 1004.0
20260509181515 67 94 6.1 12.2 0.00 0.00 0.00 67 1004.4
20260509180942 67 94 6.1 12.2 0.00 0.00 0.00 67 1004.4